,

(GMT )
Schaffen

Weather History for EBDT - February, 2014

Change the Weather History Date:

Tuesday, February 4, 2014

  Actual Average Record
Temperature  
Mean Temperature 42 °F -  
Max Temperature 49 °F 41 °F 50 °F (2011)
Min Temperature 36 °F 36 °F 5 °F (2012)
Degree Days  
Heating Degree Days 22    
Moisture  
Dew Point 35 °F    
Average Humidity 69    
Maximum Humidity 87    
Minimum Humidity 50    
Precipitation  
Precipitation 0.00 in - - ()
Sea Level Pressure  
Sea Level Pressure 29.70 in    
Wind  
Wind Speed 9 mph ()    
Max Wind Speed 16 mph    
Max Gust Speed -    
Visibility 7.2 miles    
Events      
Averages and records for this station are not official NWS values.
T = Trace of Precipitation, MM = Missing Value Source: Averaged Metar Reports

Daily Weather History Graph

Daily Weather History Graph

Search for Another Location

Airport or City:

Trip Planner

Search our weather history database for the weather conditions in past years. The results will help you decide how hot, cold, wet, or windy it might be!

Date:

Astronomy

Feb. 04, 2014 Rise Set
Actual Time 8:11 AM CET 5:35 PM CET
Civil Twilight 7:36 AM CET 6:11 PM CET
Nautical Twilight 6:57 AM CET 6:50 PM CET
Astronomical Twilight 6:18 AM CET 7:29 PM CET
Moon 10:01 AM CET (2/4) 11:56 PM CET (2/4)
Length of Visible Light 10h 34m
Length of Day
9h 23m
Waxing Crescent, 26% of the Moon is Illuminated
Feb 4
Waxing Crescent
Feb 6
First Quarter
Feb 15
Full
Feb 22
Last Quarter
Mar 1
New

Hourly Weather History & Observations

Time (CET) Temp. Windchill Dew Point Humidity Pressure Visibility Wind Dir Wind Speed Gust Speed Precip Events Conditions
12:00 AM 38 °F - 33 °F 76% 29.67 in 8 mi SE 8.9 mph - -   Scattered Clouds
12:25 AM 37.4 °F 31.4 °F 33.8 °F 87% 29.65 in 6.2 mi SE 8.1 mph - N/A   Unknown
1:00 AM 37 °F - 33 °F 79% 29.67 in 7 mi SE 6.7 mph - -   Scattered Clouds
1:25 AM 37.4 °F 31.4 °F 33.8 °F 87% 29.65 in 6.2 mi SE 8.1 mph - N/A   Mostly Cloudy
2:00 AM 38 °F - 33 °F 76% 29.67 in 7 mi SE 6.7 mph - -   Mostly Cloudy
2:25 AM 37.4 °F 34.9 °F 33.8 °F 87% 29.65 in 6.2 mi SE 3.5 mph - N/A   Scattered Clouds
3:00 AM 37 °F - 33 °F 79% 29.67 in 7 mi SE 4.5 mph - -   Scattered Clouds
3:25 AM 37.4 °F 32.8 °F 32.0 °F 81% 29.65 in 6.2 mi ESE 5.8 mph - N/A   Unknown
4:00 AM 38 °F - 33 °F 74% 29.67 in 9 mi SE 6.7 mph - -  
4:25 AM 39.2 °F 34.2 °F 32.0 °F 75% 29.65 in 6.2 mi SSE 6.9 mph - N/A   Unknown
5:00 AM 39 °F - 33 °F 70% 29.67 in 13 mi SSE 4.5 mph - -   Scattered Clouds
5:25 AM 39.2 °F 35.9 °F 33.8 °F 81% 29.65 in 6.2 mi SSE 4.6 mph - N/A   Scattered Clouds
6:00 AM 40 °F - 34 °F 71% 29.68 in 16 mi SSE 6.7 mph - -   Mostly Cloudy
6:07 AM 39.2 °F 34.2 °F 33.8 °F 81% 29.65 in 6.2 mi SSE 6.9 mph - N/A   Mostly Cloudy
6:25 AM 41.0 °F 34.3 °F 33.8 °F 76% 29.65 in 6.2 mi SSE 11.5 mph - N/A   Mostly Cloudy
7:00 AM 43 °F - 35 °F 63% 29.68 in 22 mi South 13.4 mph - -   Mostly Cloudy
7:25 AM 42.8 °F 35.8 °F 35.6 °F 76% 29.68 in 6.2 mi South 13.8 mph - N/A   Mostly Cloudy
8:00 AM 43 °F - 35 °F 66% 29.71 in 28 mi South 13.4 mph - -   Mostly Cloudy
8:25 AM 42.8 °F 36.2 °F 35.6 °F 76% 29.71 in 6.2 mi South 12.7 mph - N/A   Mostly Cloudy
8:53 AM 42.8 °F 36.6 °F 35.6 °F 76% 29.71 in 6.2 mi South 11.5 mph - N/A   Mostly Cloudy
9:00 AM 43 °F - 36 °F 68% 29.74 in 28 mi South 11.2 mph - -   Mostly Cloudy
9:25 AM 42.8 °F 35.8 °F 35.6 °F 76% 29.74 in 6.2 mi South 13.8 mph - N/A   Mostly Cloudy
9:38 AM 44.6 °F 38.4 °F 35.6 °F 71% 29.74 in 6.2 mi South 12.7 mph - N/A   Mostly Cloudy
10:00 AM 44 °F - 37 °F 67% 29.76 in 22 mi South 13.4 mph - -   Partly Cloudy
10:25 AM 44.6 °F 38.8 °F 35.6 °F 71% 29.74 in 6.2 mi South 11.5 mph - N/A   Scattered Clouds
10:40 AM 46.4 °F 41.9 °F 37.4 °F 71% 29.77 in 6.2 mi South 9.2 mph - N/A   Scattered Clouds
11:00 AM 45 °F - 36 °F 62% 29.78 in 22 mi South 11.2 mph - -   Scattered Clouds
11:25 AM 46.4 °F 39.8 °F 35.6 °F 66% 29.77 in 6.2 mi South 16.1 mph - N/A   Scattered Clouds
12:00 PM 47 °F - 37 °F 58% 29.79 in 22 mi South 13.4 mph - -   Scattered Clouds
12:25 PM 48.2 °F - 35.6 °F 62% 29.77 in 6.2 mi South 13.8 mph - N/A   Scattered Clouds
1:00 PM 47 °F - 36 °F 55% 29.78 in 25 mi South 13.4 mph - -   Scattered Clouds
1:25 PM 48.2 °F - 35.6 °F 62% 29.77 in 6.2 mi South 13.8 mph - N/A   Scattered Clouds
2:00 PM 49 °F - 37 °F 52% 29.78 in 25 mi South 13.4 mph - -   Scattered Clouds
2:25 PM 48.2 °F - 35.6 °F 62% 29.74 in 6.2 mi South 16.1 mph - N/A   Scattered Clouds
3:00 PM 49 °F - 36 °F 50% 29.75 in 25 mi South 13.4 mph - -   Scattered Clouds
3:25 PM 48.2 °F - 35.6 °F 62% 29.74 in 6.2 mi South 15.0 mph - N/A   Scattered Clouds
4:00 PM 48 °F - 35 °F 50% 29.75 in 25 mi South 11.2 mph - -   Scattered Clouds
4:03 PM 48.2 °F - 35.6 °F 62% 29.74 in 6.2 mi South 11.5 mph - N/A   Scattered Clouds
4:25 PM 48.2 °F - 35.6 °F 62% 29.74 in 6.2 mi South 13.8 mph - N/A   Mostly Cloudy
5:00 PM 47 °F - 35 °F 52% 29.74 in 19 mi South 11.2 mph - -   Overcast
5:25 PM 46.4 °F 41.1 °F 35.6 °F 66% 29.71 in 6.2 mi SSE 11.5 mph - N/A   Mostly Cloudy
6:00 PM 47 °F - 35 °F 51% 29.73 in 22 mi SSE 8.9 mph - -   Mostly Cloudy
6:25 PM 46.4 °F 42.4 °F 33.8 °F 62% 29.71 in 6.2 mi SSE 8.1 mph - N/A   Mostly Cloudy
7:00 PM 44 °F - 35 °F 59% 29.71 in 25 mi SSE 6.7 mph - -   Partly Cloudy
7:25 PM 42.8 °F 39.3 °F 33.8 °F 70% 29.68 in 6.2 mi SSE 5.8 mph - N/A   Unknown
8:00 PM 43 °F - 35 °F 63% 29.69 in 22 mi SSE 6.7 mph - -  
8:25 PM 42.8 °F 38.6 °F 33.8 °F 70% 29.65 in 6.2 mi SE 6.9 mph - N/A   Unknown
9:00 PM 41 °F - 34 °F 67% 29.68 in 25 mi SSE 4.5 mph - -  
9:25 PM 41.0 °F 36.4 °F 33.8 °F 76% 29.65 in 6.2 mi SE 6.9 mph - N/A   Unknown
10:00 PM 42 °F - 34 °F 64% 29.64 in 31 mi SE 8.9 mph - -  
10:25 PM 41.0 °F 34.3 °F 33.8 °F 76% 29.62 in 6.2 mi SSE 11.5 mph - N/A   Unknown
11:00 PM 41 °F - 34 °F 68% 29.62 in 28 mi SSE 8.9 mph - -  
11:25 PM 41.0 °F 34.3 °F 33.8 °F 76% 29.59 in 6.2 mi SE 11.5 mph - N/A   Unknown